TimeMST,TemperatureF,Dew PointF,Humidity,Sea Level PressureIn,VisibilityMPH,Wind Direction,Wind SpeedMPH,Gust SpeedMPH,PrecipitationIn,Events,Conditions,WindDirDegrees,DateUTC
12:53 AM,36.0,24.1,62,29.82,10.0,WSW,13.8,-,N/A,,Clear,240,2013-02-13 07:53:00
1:53 AM,35.1,24.1,64,29.80,10.0,West,12.7,-,N/A,,Mostly Cloudy,260,2013-02-13 08:53:00
2:53 AM,37.0,24.1,59,29.78,10.0,West,10.4,-,N/A,,Overcast,270,2013-02-13 09:53:00
3:53 AM,37.9,24.1,57,29.75,10.0,West,16.1,23.0,N/A,,Overcast,270,2013-02-13 10:53:00
4:53 AM,39.0,24.1,55,29.75,10.0,WNW,13.8,-,N/A,,Overcast,290,2013-02-13 11:53:00
5:53 AM,41.0,24.1,51,29.75,10.0,West,23.0,33.4,N/A,,Overcast,260,2013-02-13 12:53:00
6:53 AM,39.0,25.0,57,29.77,10.0,WNW,15.0,21.9,N/A,,Overcast,290,2013-02-13 13:53:00
7:53 AM,41.0,25.0,53,29.78,10.0,WNW,16.1,24.2,N/A,,Overcast,290,2013-02-13 14:53:00
8:53 AM,41.0,26.1,55,29.80,10.0,WNW,9.2,-,N/A,,Overcast,290,2013-02-13 15:53:00
9:53 AM,45.0,27.0,49,29.80,10.0,WNW,20.7,28.8,N/A,,Scattered Clouds,300,2013-02-13 16:53:00
10:53 AM,46.0,28.0,50,29.81,10.0,NW,31.1,36.8,N/A,,Partly Cloudy,310,2013-02-13 17:53:00
11:53 AM,45.0,28.9,53,29.81,10.0,WNW,20.7,32.2,N/A,,Partly Cloudy,300,2013-02-13 18:53:00
12:53 PM,48.0,27.0,44,29.81,10.0,WNW,25.3,33.4,N/A,,Scattered Clouds,290,2013-02-13 19:53:00
1:53 PM,46.9,26.1,44,29.82,10.0,NW,21.9,35.7,N/A,,Scattered Clouds,320,2013-02-13 20:53:00
2:53 PM,46.9,25.0,42,29.84,10.0,NW,24.2,33.4,N/A,,Clear,310,2013-02-13 21:53:00
3:53 PM,43.0,25.0,49,29.88,10.0,NNW,25.3,38.0,N/A,,Clear,330,2013-02-13 22:53:00
4:53 PM,42.1,23.0,47,29.90,10.0,NW,18.4,26.5,N/A,,Clear,320,2013-02-13 23:53:00
5:53 PM,37.9,24.1,57,29.96,10.0,NW,18.4,-,N/A,,Clear,320,2013-02-14 00:53:00
6:53 PM,36.0,24.1,62,29.98,10.0,NW,13.8,-,N/A,,Clear,310,2013-02-14 01:53:00
7:53 PM,36.0,23.0,59,30.00,10.0,NW,16.1,25.3,N/A,,Overcast,310,2013-02-14 02:53:00
8:53 PM,35.1,19.0,52,30.01,10.0,NW,21.9,31.1,N/A,,Overcast,310,2013-02-14 03:53:00
9:53 PM,34.0,19.9,56,30.01,10.0,WNW,18.4,26.5,N/A,,Overcast,300,2013-02-14 04:53:00
10:53 PM,34.0,19.9,56,30.01,10.0,NW,17.3,26.5,N/A,,Overcast,310,2013-02-14 05:53:00
11:53 PM,34.0,19.9,56,30.03,10.0,NW,23.0,36.8,N/A,,Mostly Cloudy,310,2013-02-14 06:53:00